Time,TemperatureF,DewpointF,PressureIn,WindDirection,WindDirectionDegrees,WindSpeedMPH,WindSpeedGustMPH,Humidity,HourlyPrecipIn,Conditions,Clouds,dailyrainin,SoftwareType,DateUTC
2013-08-10 00:02:00,72.7,64.0,29.62,West,270,0.7,1.3,74,0.00,,,0.00,WUHU216HW,2013-08-10 05:02:00,
2013-08-10 00:07:00,72.7,64.0,29.62,WNW,293,0.0,1.3,74,0.00,,,0.00,WUHU216HW,2013-08-10 05:07:00,
2013-08-10 00:12:00,72.7,64.0,29.62,WSW,248,0.0,0.2,74,0.00,,,0.00,WUHU216HW,2013-08-10 05:12:00,
2013-08-10 00:17:00,72.7,64.4,29.62,WNW,293,2.0,2.0,75,0.00,,,0.00,WUHU216HW,2013-08-10 05:17:00,
2013-08-10 00:22:00,72.7,64.4,29.62,WSW,248,0.9,2.5,75,0.00,,,0.00,WUHU216HW,2013-08-10 05:22:00,
2013-08-10 00:27:00,72.7,64.4,29.62,West,270,0.0,2.5,75,0.00,,,0.00,WUHU216HW,2013-08-10 05:27:00,
2013-08-10 00:32:00,72.7,64.4,29.62,West,270,0.0,0.2,75,0.00,,,0.00,WUHU216HW,2013-08-10 05:32:00,
2013-08-10 00:37:00,72.7,64.4,29.62,West,270,0.0,0.0,75,0.00,,,0.00,WUHU216HW,2013-08-10 05:37:00,
2013-08-10 00:42:00,72.7,64.4,29.62,NW,315,0.9,0.9,75,0.00,,,0.00,WUHU216HW,2013-08-10 05:42:00,
2013-08-10 00:47:00,72.5,64.9,29.63,WNW,293,0.9,1.3,77,0.00,,,0.00,WUHU216HW,2013-08-10 05:47:00,
2013-08-10 00:52:00,72.4,64.7,29.63,NNW,338,0.7,1.3,77,0.00,,,0.00,WUHU216HW,2013-08-10 05:52:00,
2013-08-10 00:57:00,72.4,64.7,29.63,NW,315,0.7,1.1,77,0.00,,,0.00,WUHU216HW,2013-08-10 05:57:00,
2013-08-10 01:02:00,72.2,64.5,29.63,NNW,338,0.7,1.1,77,0.00,,,0.00,WUHU216HW,2013-08-10 06:02:00,
2013-08-10 01:07:00,72.2,65.0,29.63,NNW,338,1.1,1.3,78,0.00,,,0.00,WUHU216HW,2013-08-10 06:07:00,
2013-08-10 01:12:00,72.0,64.4,29.63,NW,315,0.7,1.3,77,0.00,,,0.00,WUHU216HW,2013-08-10 06:12:00,
2013-08-10 01:17:00,72.0,64.8,29.63,NW,315,0.7,1.1,78,0.00,,,0.00,WUHU216HW,2013-08-10 06:17:00,
2013-08-10 01:22:00,72.0,64.4,29.62,NNW,338,0.7,0.9,77,0.00,,,0.00,WUHU216HW,2013-08-10 06:22:00,
2013-08-10 01:27:00,72.0,64.8,29.63,WNW,293,1.3,1.3,78,0.00,,,0.00,WUHU216HW,2013-08-10 06:27:00,
2013-08-10 01:32:00,72.0,65.2,29.63,NNW,338,0.7,1.8,79,0.00,,,0.00,WUHU216HW,2013-08-10 06:32:00,
2013-08-10 01:37:00,72.0,64.8,29.63,North,0,0.7,1.8,78,0.00,,,0.00,WUHU216HW,2013-08-10 06:37:00,
2013-08-10 01:42:00,71.8,64.6,29.63,NNW,338,0.0,1.1,78,0.00,,,0.00,WUHU216HW,2013-08-10 06:42:00,
2013-08-10 01:47:00,72.0,64.8,29.63,NNW,338,0.0,0.2,78,0.00,,,0.00,WUHU216HW,2013-08-10 06:47:00,
2013-08-10 01:52:00,72.0,64.8,29.63,NW,315,0.9,0.9,78,0.00,,,0.00,WUHU216HW,2013-08-10 06:52:00,
2013-08-10 01:57:00,72.0,65.2,29.63,NW,315,0.9,0.9,79,0.00,,,0.00,WUHU216HW,2013-08-10 06:57:00,
2013-08-10 02:02:00,72.0,64.8,29.63,North,0,0.9,0.9,78,0.00,,,0.00,WUHU216HW,2013-08-10 07:02:00,
2013-08-10 02:07:00,72.0,65.2,29.63,NNW,338,0.4,1.1,79,0.00,,,0.00,WUHU216HW,2013-08-10 07:07:00,
2013-08-10 02:12:00,72.0,65.2,29.63,NNW,338,0.4,1.1,79,0.00,,,0.00,WUHU216HW,2013-08-10 07:12:00,
2013-08-10 02:17:00,72.0,64.8,29.63,North,0,0.0,0.9,78,0.00,,,0.00,WUHU216HW,2013-08-10 07:17:00,
2013-08-10 02:22:00,72.0,65.2,29.64,NNW,338,0.4,0.9,79,0.00,,,0.00,WUHU216HW,2013-08-10 07:22:00,
2013-08-10 02:27:00,72.0,64.8,29.64,NNW,338,1.1,1.1,78,0.00,,,0.00,WUHU216HW,2013-08-10 07:27:00,
2013-08-10 02:32:00,72.0,64.8,29.63,North,0,0.4,1.1,78,0.00,,,0.00,WUHU216HW,2013-08-10 07:32:00,
2013-08-10 02:37:00,72.0,64.8,29.63,North,0,0.0,1.1,78,0.00,,,0.00,WUHU216HW,2013-08-10 07:37:00,
2013-08-10 02:42:00,72.0,64.4,29.63,NNW,338,0.0,1.1,77,0.00,,,0.00,WUHU216HW,2013-08-10 07:42:00,
2013-08-10 02:47:00,72.0,64.4,29.63,NNW,338,0.0,1.1,77,0.00,,,0.00,WUHU216HW,2013-08-10 07:47:00,
2013-08-10 02:52:00,72.0,64.4,29.63,NNW,338,0.0,0.4,77,0.00,,,0.00,WUHU216HW,2013-08-10 07:52:00,
2013-08-10 02:57:00,72.0,64.4,29.63,North,0,0.0,1.1,77,0.00,,,0.00,WUHU216HW,2013-08-10 07:57:00,
2013-08-10 03:02:00,71.8,63.8,29.63,North,0,0.0,1.1,76,0.00,,,0.00,WUHU216HW,2013-08-10 08:02:00,
2013-08-10 03:06:00,71.8,63.8,29.63,NNE,23,0.0,0.0,76,0.00,,,0.00,WUHU216HW,2013-08-10 08:06:00,
2013-08-10 03:07:00,71.8,63.8,29.63,NNE,23,0.0,0.0,76,0.00,,,0.00,WUHU216HW,2013-08-10 08:07:00,
2013-08-10 03:12:00,71.8,63.8,29.63,NNE,23,0.0,0.0,76,0.00,,,0.00,WUHU216HW,2013-08-10 08:12:00,
2013-08-10 03:36:00,71.5,63.1,29.64,North,0,0.0,0.0,75,0.00,,,0.00,WUHU216HW,2013-08-10 08:36:00,
2013-08-10 03:41:00,71.3,62.9,29.64,North,0,0.0,0.0,75,0.00,,,0.00,WUHU216HW,2013-08-10 08:41:00,
2013-08-10 03:46:00,71.1,62.7,29.64,NNW,338,0.9,0.9,75,0.00,,,0.00,WUHU216HW,2013-08-10 08:46:00,
2013-08-10 03:51:00,70.7,62.4,29.64,NNW,338,0.7,0.9,75,0.00,,,0.00,WUHU216HW,2013-08-10 08:51:00,
2013-08-10 03:56:00,70.6,62.2,29.64,NNW,338,0.0,0.7,75,0.00,,,0.00,WUHU216HW,2013-08-10 08:56:00,
2013-08-10 04:01:00,70.4,62.0,29.64,North,0,0.0,0.9,75,0.00,,,0.00,WUHU216HW,2013-08-10 09:01:00,
2013-08-10 04:06:00,70.2,61.8,29.64,NNW,338,1.1,1.1,75,0.00,,,0.00,WUHU216HW,2013-08-10 09:06:00,
2013-08-10 04:11:00,70.0,61.7,29.64,North,0,0.7,1.3,75,0.00,,,0.00,WUHU216HW,2013-08-10 09:11:00,
2013-08-10 04:16:00,69.8,61.5,29.64,North,0,0.0,1.3,75,0.00,,,0.00,WUHU216HW,2013-08-10 09:16:00,
2013-08-10 04:21:00,69.8,61.5,29.64,North,0,0.0,1.1,75,0.00,,,0.00,WUHU216HW,2013-08-10 09:21:00,
2013-08-10 04:26:00,69.7,61.3,29.64,NNW,338,0.0,1.1,75,0.00,,,0.00,WUHU216HW,2013-08-10 09:26:00,
2013-08-10 04:31:00,69.5,61.1,29.64,NNW,338,1.1,1.1,75,0.00,,,0.00,WUHU216HW,2013-08-10 09:31:00,
2013-08-10 04:36:00,69.3,61.0,29.64,NNW,338,0.7,1.1,75,0.00,,,0.00,WUHU216HW,2013-08-10 09:36:00,
2013-08-10 04:41:00,69.1,61.2,29.64,NW,315,1.1,1.1,76,0.00,,,0.00,WUHU216HW,2013-08-10 09:41:00,
2013-08-10 04:46:00,69.1,61.2,29.65,NNW,338,0.2,1.1,76,0.00,,,0.00,WUHU216HW,2013-08-10 09:46:00,
2013-08-10 04:51:00,68.8,60.8,29.65,NNW,338,0.9,1.1,76,0.00,,,0.00,WUHU216HW,2013-08-10 09:51:00,
2013-08-10 04:56:00,68.8,60.8,29.65,NNW,338,0.4,1.1,76,0.00,,,0.00,WUHU216HW,2013-08-10 09:56:00,
2013-08-10 05:01:00,68.6,60.8,29.64,NNW,338,1.1,1.1,76,0.00,,,0.00,WUHU216HW,2013-08-10 10:01:00,
2013-08-10 05:06:00,68.4,60.6,29.64,NNW,338,0.4,1.1,76,0.00,,,0.00,WUHU216HW,2013-08-10 10:06:00,
2013-08-10 05:11:00,68.4,60.6,29.64,North,0,0.4,0.9,76,0.00,,,0.00,WUHU216HW,2013-08-10 10:11:00,
2013-08-10 05:16:00,68.4,60.6,29.65,NNW,338,0.9,0.9,76,0.00,,,0.00,WUHU216HW,2013-08-10 10:16:00,
2013-08-10 05:21:00,68.0,60.6,29.65,NNW,338,0.4,0.9,77,0.00,,,0.00,WUHU216HW,2013-08-10 10:21:00,
2013-08-10 05:26:00,68.0,60.6,29.65,NNW,338,0.2,0.9,77,0.00,,,0.00,WUHU216HW,2013-08-10 10:26:00,
2013-08-10 05:31:00,68.0,60.6,29.65,NNW,338,0.0,0.9,77,0.00,,,0.00,WUHU216HW,2013-08-10 10:31:00,
2013-08-10 05:36:00,67.9,60.4,29.65,NNW,338,1.1,1.1,77,0.00,,,0.00,WUHU216HW,2013-08-10 10:36:00,
2013-08-10 05:41:00,67.7,60.2,29.66,NNW,338,1.1,1.1,77,0.00,,,0.00,WUHU216HW,2013-08-10 10:41:00,
2013-08-10 05:46:00,67.5,60.5,29.66,NNW,338,0.7,1.1,78,0.00,,,0.00,WUHU216HW,2013-08-10 10:46:00,
2013-08-10 05:51:00,67.3,60.3,29.66,NNW,338,0.9,1.1,78,0.00,,,0.00,WUHU216HW,2013-08-10 10:51:00,
2013-08-10 05:56:00,67.1,60.1,29.66,NNW,338,0.2,1.1,78,0.00,,,0.00,WUHU216HW,2013-08-10 10:56:00,
2013-08-10 06:01:00,67.1,60.5,29.66,NNW,338,0.2,0.7,79,0.00,,,0.00,WUHU216HW,2013-08-10 11:01:00,
2013-08-10 06:06:00,67.0,60.3,29.66,NNW,338,0.4,1.1,79,0.00,,,0.00,WUHU216HW,2013-08-10 11:06:00,
2013-08-10 06:11:00,66.8,60.1,29.66,North,0,0.0,1.1,79,0.00,,,0.00,WUHU216HW,2013-08-10 11:11:00,
2013-08-10 06:16:00,66.8,60.1,29.66,NNW,338,0.0,0.4,79,0.00,,,0.00,WUHU216HW,2013-08-10 11:16:00,
2013-08-10 06:21:00,66.6,60.0,29.65,NNW,338,0.0,0.9,79,0.00,,,0.00,WUHU216HW,2013-08-10 11:21:00,
2013-08-10 06:26:00,66.6,60.0,29.65,NNW,338,0.7,0.9,79,0.00,,,0.00,WUHU216HW,2013-08-10 11:26:00,
2013-08-10 06:31:00,66.6,60.0,29.65,North,0,0.0,0.9,79,0.00,,,0.00,WUHU216HW,2013-08-10 11:31:00,
2013-08-10 06:36:00,66.6,60.0,29.65,North,0,0.0,0.4,79,0.00,,,0.00,WUHU216HW,2013-08-10 11:36:00,
2013-08-10 06:41:00,66.6,60.0,29.65,North,0,0.0,0.0,79,0.00,,,0.00,WUHU216HW,2013-08-10 11:41:00,
2013-08-10 06:46:00,66.6,60.0,29.65,NNW,338,0.0,0.0,79,0.00,,,0.00,WUHU216HW,2013-08-10 11:46:00,
2013-08-10 06:51:00,66.6,60.0,29.66,NW,315,0.9,0.9,79,0.00,,,0.00,WUHU216HW,2013-08-10 11:51:00,
2013-08-10 06:56:00,66.8,60.1,29.66,NNW,338,0.7,1.1,79,0.00,,,0.00,WUHU216HW,2013-08-10 11:56:00,
2013-08-10 07:01:00,67.0,60.3,29.66,NNW,338,0.7,1.1,79,0.00,,,0.00,WUHU216HW,2013-08-10 12:01:00,
2013-08-10 07:06:00,67.0,60.3,29.66,NW,315,0.4,1.1,79,0.00,,,0.00,WUHU216HW,2013-08-10 12:06:00,
2013-08-10 07:11:00,67.3,60.7,29.66,NW,315,0.7,0.9,79,0.00,,,0.00,WUHU216HW,2013-08-10 12:11:00,
2013-08-10 07:16:00,67.9,61.2,29.66,North,0,0.7,0.9,79,0.00,,,0.00,WUHU216HW,2013-08-10 12:16:00,
2013-08-10 07:21:00,68.0,61.0,29.66,NW,315,0.4,1.1,78,0.00,,,0.00,WUHU216HW,2013-08-10 12:21:00,
2013-08-10 07:26:00,68.4,60.9,29.66,North,0,0.2,1.1,77,0.00,,,0.00,WUHU216HW,2013-08-10 12:26:00,
2013-08-10 07:31:00,68.4,60.9,29.66,NNW,338,0.0,0.4,77,0.00,,,0.00,WUHU216HW,2013-08-10 12:31:00,
2013-08-10 07:36:00,68.8,61.3,29.66,NNE,23,0.0,0.4,77,0.00,,,0.00,WUHU216HW,2013-08-10 12:36:00,
2013-08-10 07:41:00,69.1,61.2,29.66,East,90,0.7,1.3,76,0.00,,,0.00,WUHU216HW,2013-08-10 12:41:00,
2013-08-10 07:46:00,69.3,61.0,29.66,NNW,338,0.4,1.3,75,0.00,,,0.00,WUHU216HW,2013-08-10 12:46:00,
2013-08-10 07:51:00,69.5,61.1,29.67,NW,315,1.1,1.6,75,0.00,,,0.00,WUHU216HW,2013-08-10 12:51:00,
2013-08-10 07:56:00,69.5,60.8,29.66,NNW,338,1.6,2.2,74,0.00,,,0.00,WUHU216HW,2013-08-10 12:56:00,
2013-08-10 08:01:00,69.7,60.9,29.66,NNE,23,0.9,2.2,74,0.00,,,0.00,WUHU216HW,2013-08-10 13:01:00,
2013-08-10 08:06:00,70.0,61.3,29.67,North,0,0.4,1.6,74,0.00,,,0.00,WUHU216HW,2013-08-10 13:06:00,
2013-08-10 08:11:00,70.4,61.3,29.67,NNW,338,0.7,1.8,73,0.00,,,0.00,WUHU216HW,2013-08-10 13:11:00,
2013-08-10 08:16:00,70.7,61.7,29.67,NW,315,1.8,1.8,73,0.00,,,0.00,WUHU216HW,2013-08-10 13:16:00,
2013-08-10 08:21:00,70.9,61.4,29.67,NNW,338,0.4,1.8,72,0.00,,,0.00,WUHU216HW,2013-08-10 13:21:00,
2013-08-10 08:26:00,71.3,61.7,29.67,NE,45,0.4,1.8,72,0.00,,,0.00,WUHU216HW,2013-08-10 13:26:00,
2013-08-10 08:31:00,71.8,62.3,29.67,NE,45,0.4,1.1,72,0.00,,,0.00,WUHU216HW,2013-08-10 13:31:00,
2013-08-10 08:36:00,72.4,62.8,29.67,NW,315,1.3,1.3,72,0.00,,,0.00,WUHU216HW,2013-08-10 13:36:00,
2013-08-10 08:41:00,72.5,62.6,29.67,NNW,338,0.7,1.3,71,0.00,,,0.00,WUHU216HW,2013-08-10 13:41:00,
2013-08-10 08:46:00,72.9,63.0,29.67,NW,315,0.4,1.8,71,0.00,,,0.00,WUHU216HW,2013-08-10 13:46:00,
2013-08-10 08:51:00,73.3,62.6,29.68,NNW,338,0.9,2.7,69,0.00,,,0.00,WUHU216HW,2013-08-10 13:51:00,
2013-08-10 08:56:00,73.6,62.9,29.68,NNE,23,0.0,2.7,69,0.00,,,0.00,WUHU216HW,2013-08-10 13:56:00,
2013-08-10 09:01:00,74.0,62.8,29.68,ENE,68,0.4,1.8,68,0.00,,,0.00,WUHU216HW,2013-08-10 14:01:00,
2013-08-10 09:06:00,76.1,62.7,29.68,NNW,338,0.4,1.1,63,0.00,,,0.00,WUHU216HW,2013-08-10 14:06:00,
2013-08-10 09:11:00,77.9,62.0,29.68,NW,315,1.1,1.3,58,0.00,,,0.00,WUHU216HW,2013-08-10 14:11:00,
2013-08-10 09:16:00,78.1,63.2,29.68,NW,315,1.1,1.8,60,0.00,,,0.00,WUHU216HW,2013-08-10 14:16:00,
2013-08-10 09:21:00,77.4,62.5,29.68,NW,315,1.1,1.8,60,0.00,,,0.00,WUHU216HW,2013-08-10 14:21:00,
2013-08-10 09:26:00,76.9,61.9,29.68,West,270,2.5,2.7,60,0.00,,,0.00,WUHU216HW,2013-08-10 14:26:00,
2013-08-10 09:31:00,76.7,61.3,29.69,West,270,2.9,2.9,59,0.00,,,0.00,WUHU216HW,2013-08-10 14:31:00,
2013-08-10 09:36:00,76.5,62.1,29.69,NE,45,0.4,2.9,61,0.00,,,0.00,WUHU216HW,2013-08-10 14:36:00,
2013-08-10 09:37:00,77.0,60.6,29.69,WNW,293,1.1,1.1,57,0.00,,,0.00,WUHU216HW,2013-08-10 14:37:00,
2013-08-10 09:41:00,77.0,60.6,29.69,WNW,293,1.1,2.0,57,0.00,,,0.00,WUHU216HW,2013-08-10 14:41:00,
2013-08-10 09:46:00,77.0,60.6,29.69,WNW,293,1.1,1.1,57,0.00,,,0.00,WUHU216HW,2013-08-10 14:46:00,
2013-08-10 10:00:00,79.2,60.6,29.69,NNW,338,1.6,1.6,53,0.00,,,0.00,WUHU216HW,2013-08-10 15:00:00,
2013-08-10 10:05:00,78.8,60.2,29.69,North,0,1.6,1.8,53,0.00,,,0.00,WUHU216HW,2013-08-10 15:05:00,
2013-08-10 10:10:00,80.1,60.3,29.69,West,270,1.1,2.5,51,0.00,,,0.00,WUHU216HW,2013-08-10 15:10:00,
2013-08-10 10:15:00,81.4,61.5,29.69,NW,315,1.8,2.5,51,0.00,,,0.00,WUHU216HW,2013-08-10 15:15:00,
2013-08-10 10:20:00,80.8,59.9,29.70,WNW,293,1.1,3.4,49,0.00,,,0.00,WUHU216HW,2013-08-10 15:20:00,
2013-08-10 10:25:00,80.3,59.4,29.69,NW,315,1.1,4.5,49,0.00,,,0.00,WUHU216HW,2013-08-10 15:25:00,
2013-08-10 10:30:00,82.3,60.0,29.69,NNW,338,0.4,4.5,47,0.00,,,0.00,WUHU216HW,2013-08-10 15:30:00,
2013-08-10 10:35:00,83.5,59.9,29.69,NW,315,2.0,2.0,45,0.00,,,0.00,WUHU216HW,2013-08-10 15:35:00,
2013-08-10 10:40:00,83.2,60.1,29.69,NNW,338,0.2,4.9,46,0.00,,,0.00,WUHU216HW,2013-08-10 15:40:00,
2013-08-10 10:45:00,82.6,60.3,29.69,NW,315,1.8,4.9,47,0.00,,,0.00,WUHU216HW,2013-08-10 15:45:00,
2013-08-10 10:50:00,82.1,59.1,29.69,WNW,293,1.1,3.1,46,0.00,,,0.00,WUHU216HW,2013-08-10 15:50:00,
2013-08-10 10:55:00,83.5,59.9,29.69,NNW,338,0.9,4.7,45,0.00,,,0.00,WUHU216HW,2013-08-10 15:55:00,
2013-08-10 11:00:00,84.1,59.8,29.69,NW,315,2.0,4.7,44,0.00,,,0.00,WUHU216HW,2013-08-10 16:00:00,
2013-08-10 11:05:00,84.1,59.8,29.69,WNW,293,1.1,4.7,44,0.00,,,0.00,WUHU216HW,2013-08-10 16:05:00,
2013-08-10 11:10:00,83.2,60.8,29.69,North,0,1.1,2.7,47,0.00,,,0.00,WUHU216HW,2013-08-10 16:10:00,
2013-08-10 11:15:00,83.5,59.9,29.69,WNW,293,2.7,2.7,45,0.00,,,0.00,WUHU216HW,2013-08-10 16:15:00,
2013-08-10 11:20:00,84.1,58.5,29.69,North,0,1.8,2.7,42,0.00,,,0.00,WUHU216HW,2013-08-10 16:20:00,
2013-08-10 11:25:00,84.4,58.9,29.69,SW,225,1.3,3.4,42,0.00,,,0.00,WUHU216HW,2013-08-10 16:25:00,
2013-08-10 11:30:00,85.3,59.1,29.69,NE,45,1.3,3.4,41,0.00,,,0.00,WUHU216HW,2013-08-10 16:30:00,
2013-08-10 11:35:00,85.9,59.5,29.69,NNE,23,1.1,1.3,41,0.00,,,0.00,WUHU216HW,2013-08-10 16:35:00,
2013-08-10 11:40:00,85.0,58.1,29.69,East,90,0.7,2.7,40,0.00,,,0.00,WUHU216HW,2013-08-10 16:40:00,
2013-08-10 11:45:00,83.9,59.0,29.69,NNE,23,0.7,2.7,43,0.00,,,0.00,WUHU216HW,2013-08-10 16:45:00,
2013-08-10 11:50:00,84.8,58.5,29.69,NW,315,1.1,2.7,41,0.00,,,0.00,WUHU216HW,2013-08-10 16:50:00,
2013-08-10 11:55:00,85.5,57.8,29.69,South,180,0.2,2.7,39,0.00,,,0.00,WUHU216HW,2013-08-10 16:55:00,
2013-08-10 12:00:00,85.5,59.2,29.69,NW,315,1.8,2.2,41,0.00,,,0.00,WUHU216HW,2013-08-10 17:00:00,
2013-08-10 12:05:00,84.2,58.1,29.69,NE,45,0.9,4.7,41,0.00,,,0.00,WUHU216HW,2013-08-10 17:05:00,
2013-08-10 12:10:00,84.2,59.9,29.69,NE,45,2.5,4.7,44,0.00,,,0.00,WUHU216HW,2013-08-10 17:10:00,
2013-08-10 12:15:00,85.7,59.3,29.69,NNE,23,0.4,2.5,41,0.00,,,0.00,WUHU216HW,2013-08-10 17:15:00,
2013-08-10 12:20:00,86.8,61.6,29.69,North,0,0.2,2.0,43,0.00,,,0.00,WUHU216HW,2013-08-10 17:20:00,
2013-08-10 12:25:00,86.4,61.3,29.69,WNW,293,2.0,2.0,43,0.00,,,0.00,WUHU216HW,2013-08-10 17:25:00,
2013-08-10 12:30:00,85.7,59.9,29.69,WNW,293,1.3,3.1,42,0.00,,,0.00,WUHU216HW,2013-08-10 17:30:00,
2013-08-10 12:35:00,86.0,60.9,29.69,North,0,2.5,5.6,43,0.00,,,0.00,WUHU216HW,2013-08-10 17:35:00,
2013-08-10 12:40:00,86.8,61.6,29.69,North,0,1.1,5.6,43,0.00,,,0.00,WUHU216HW,2013-08-10 17:40:00,
2013-08-10 12:45:00,87.1,60.7,29.69,WNW,293,3.6,6.9,41,0.00,,,0.00,WUHU216HW,2013-08-10 17:45:00,
2013-08-10 12:51:00,86.2,60.5,29.69,NNE,23,0.4,6.9,42,0.00,,,0.00,WUHU216HW,2013-08-10 17:51:00,
2013-08-10 12:55:00,86.0,60.9,29.69,West,270,6.3,6.3,43,0.00,,,0.00,WUHU216HW,2013-08-10 17:55:00,
2013-08-10 13:01:00,85.0,60.6,29.69,WSW,248,3.6,6.7,44,0.00,,,0.00,WUHU216HW,2013-08-10 18:01:00,
2013-08-10 13:05:00,85.5,60.5,29.69,NNE,23,1.1,6.7,43,0.00,,,0.00,WUHU216HW,2013-08-10 18:05:00,
2013-08-10 13:10:00,87.3,61.5,29.68,WNW,293,4.0,4.0,42,0.00,,,0.00,WUHU216HW,2013-08-10 18:10:00,
2013-08-10 13:15:00,87.8,61.3,29.68,North,0,3.1,4.7,41,0.00,,,0.00,WUHU216HW,2013-08-10 18:15:00,
2013-08-10 13:21:00,86.9,61.1,29.68,NNE,23,1.3,4.7,42,0.00,,,0.00,WUHU216HW,2013-08-10 18:21:00,
2013-08-10 13:26:00,86.8,60.9,29.68,NW,315,1.8,2.9,42,0.00,,,0.00,WUHU216HW,2013-08-10 18:26:00,
2013-08-10 13:31:00,86.8,58.9,29.68,WNW,293,2.0,5.6,39,0.00,,,0.00,WUHU216HW,2013-08-10 18:31:00,
2013-08-10 13:35:00,87.1,61.9,29.68,NW,315,2.9,5.6,43,0.00,,,0.00,WUHU216HW,2013-08-10 18:35:00,
2013-08-10 13:41:00,87.3,60.2,29.68,WNW,293,2.2,5.6,40,0.00,,,0.00,WUHU216HW,2013-08-10 18:41:00,
2013-08-10 13:46:00,87.3,60.9,29.68,WNW,293,4.7,4.7,41,0.00,,,0.00,WUHU216HW,2013-08-10 18:46:00,
2013-08-10 13:51:00,87.3,60.9,29.68,WNW,293,0.9,4.7,41,0.00,,,0.00,WUHU216HW,2013-08-10 18:51:00,
2013-08-10 13:56:00,87.7,61.1,29.68,NW,315,2.7,2.9,41,0.00,,,0.00,WUHU216HW,2013-08-10 18:56:00,
2013-08-10 14:01:00,87.5,60.3,29.68,WSW,248,2.2,3.8,40,0.00,,,0.00,WUHU216HW,2013-08-10 19:01:00,
2013-08-10 14:05:00,87.5,60.9,29.68,NNE,23,0.9,4.5,41,0.00,,,0.00,WUHU216HW,2013-08-10 19:05:00,
2013-08-10 14:10:00,87.1,61.3,29.68,ENE,68,0.7,4.5,42,0.00,,,0.00,WUHU216HW,2013-08-10 19:10:00,
2013-08-10 14:15:00,87.8,60.7,29.68,WNW,293,2.5,2.5,40,0.00,,,0.00,WUHU216HW,2013-08-10 19:15:00,
2013-08-10 14:20:00,88.0,60.9,29.68,West,270,6.9,6.9,40,0.00,,,0.00,WUHU216HW,2013-08-10 19:20:00,
2013-08-10 14:25:00,88.2,61.6,29.67,North,0,0.4,6.9,41,0.00,,,0.00,WUHU216HW,2013-08-10 19:25:00,
2013-08-10 14:30:00,89.1,60.8,29.67,North,0,1.6,5.1,39,0.00,,,0.00,WUHU216HW,2013-08-10 19:30:00,
2013-08-10 14:35:00,88.9,59.1,29.67,West,270,10.5,10.5,37,0.00,,,0.00,WUHU216HW,2013-08-10 19:35:00,
2013-08-10 14:40:00,88.2,60.9,29.67,NNE,23,2.9,10.5,40,0.00,,,0.00,WUHU216HW,2013-08-10 19:40:00,
2013-08-10 14:45:00,88.9,60.8,29.67,NW,315,1.1,4.0,39,0.00,,,0.00,WUHU216HW,2013-08-10 19:45:00,
2013-08-10 14:50:00,88.9,60.0,29.67,NNW,338,2.9,3.6,38,0.00,,,0.00,WUHU216HW,2013-08-10 19:50:00,
2013-08-10 14:55:00,88.7,60.6,29.67,North,0,1.1,3.6,39,0.00,,,0.00,WUHU216HW,2013-08-10 19:55:00,
2013-08-10 15:00:00,88.9,60.8,29.67,North,0,1.8,3.4,39,0.00,,,0.00,WUHU216HW,2013-08-10 20:00:00,
2013-08-10 15:05:00,88.9,60.8,29.67,NE,45,0.4,2.5,39,0.00,,,0.00,WUHU216HW,2013-08-10 20:05:00,
2013-08-10 15:10:00,88.9,60.8,29.66,ENE,68,3.4,4.7,39,0.00,,,0.00,WUHU216HW,2013-08-10 20:10:00,
2013-08-10 15:15:00,89.1,60.8,29.66,WNW,293,1.1,4.7,39,0.00,,,0.00,WUHU216HW,2013-08-10 20:15:00,
2013-08-10 15:20:00,88.9,62.2,29.66,NNW,338,2.7,3.8,41,0.00,,,0.00,WUHU216HW,2013-08-10 20:20:00,
2013-08-10 15:25:00,89.1,60.8,29.66,WNW,293,2.5,4.7,39,0.00,,,0.00,WUHU216HW,2013-08-10 20:25:00,
2013-08-10 15:30:00,89.1,61.7,29.66,WNW,293,2.5,4.7,40,0.00,,,0.00,WUHU216HW,2013-08-10 20:30:00,
2013-08-10 15:35:00,88.9,59.1,29.66,NW,315,1.3,3.1,37,0.00,,,0.00,WUHU216HW,2013-08-10 20:35:00,
2013-08-10 15:40:00,88.9,60.8,29.66,WNW,293,1.3,3.6,39,0.00,,,0.00,WUHU216HW,2013-08-10 20:40:00,
2013-08-10 15:45:00,89.3,61.0,29.66,NNW,338,2.2,4.0,39,0.00,,,0.00,WUHU216HW,2013-08-10 20:45:00,
2013-08-10 15:50:00,88.9,60.8,29.66,NE,45,1.6,4.0,39,0.00,,,0.00,WUHU216HW,2013-08-10 20:50:00,
2013-08-10 15:55:00,88.9,61.6,29.66,West,270,1.1,3.4,40,0.00,,,0.00,WUHU216HW,2013-08-10 20:55:00,
2013-08-10 16:00:00,88.6,60.4,29.66,WSW,248,0.4,1.1,39,0.00,,,0.00,WUHU216HW,2013-08-10 21:00:00,
2013-08-10 16:05:00,87.8,61.3,29.65,NW,315,2.2,2.2,41,0.00,,,0.00,WUHU216HW,2013-08-10 21:05:00,
2013-08-10 16:10:00,87.8,60.7,29.66,West,270,1.8,4.0,40,0.00,,,0.00,WUHU216HW,2013-08-10 21:10:00,
2013-08-10 16:15:00,88.2,61.6,29.65,NE,45,1.8,4.0,41,0.00,,,0.00,WUHU216HW,2013-08-10 21:15:00,
2013-08-10 16:20:00,88.7,60.6,29.65,NE,45,1.1,2.9,39,0.00,,,0.00,WUHU216HW,2013-08-10 21:20:00,
2013-08-10 16:25:00,88.2,60.1,29.65,North,0,2.7,2.7,39,0.00,,,0.00,WUHU216HW,2013-08-10 21:25:00,
2013-08-10 16:30:00,87.5,60.3,29.65,North,0,4.5,4.5,40,0.00,,,0.00,WUHU216HW,2013-08-10 21:30:00,
2013-08-10 16:35:00,86.2,59.9,29.65,NE,45,1.8,5.4,41,0.00,,,0.00,WUHU216HW,2013-08-10 21:35:00,
2013-08-10 16:40:00,87.3,60.9,29.65,WSW,248,0.0,5.4,41,0.00,,,0.00,WUHU216HW,2013-08-10 21:40:00,
2013-08-10 16:45:00,88.0,60.9,29.66,ESE,113,1.8,1.8,40,0.00,,,0.00,WUHU216HW,2013-08-10 21:45:00,
2013-08-10 16:50:00,88.4,60.3,29.65,NW,315,3.1,3.4,39,0.00,,,0.00,WUHU216HW,2013-08-10 21:50:00,
2013-08-10 16:55:00,88.2,60.9,29.65,NNW,338,2.5,3.4,40,0.00,,,0.00,WUHU216HW,2013-08-10 21:55:00,
2013-08-10 17:00:00,88.2,60.1,29.65,WNW,293,3.1,3.4,39,0.00,,,0.00,WUHU216HW,2013-08-10 22:00:00,
2013-08-10 17:05:00,87.8,59.9,29.65,NW,315,1.3,3.4,39,0.00,,,0.00,WUHU216HW,2013-08-10 22:05:00,
2013-08-10 17:10:00,87.5,60.3,29.65,NW,315,1.1,5.1,40,0.00,,,0.00,WUHU216HW,2013-08-10 22:10:00,
2013-08-10 17:15:00,86.4,60.0,29.65,North,0,0.9,5.1,41,0.00,,,0.00,WUHU216HW,2013-08-10 22:15:00,
2013-08-10 17:20:00,87.1,60.0,29.65,NE,45,0.7,1.8,40,0.00,,,0.00,WUHU216HW,2013-08-10 22:20:00,
2013-08-10 17:25:00,87.8,59.9,29.65,North,0,1.1,1.8,39,0.00,,,0.00,WUHU216HW,2013-08-10 22:25:00,
2013-08-10 17:30:00,88.2,60.1,29.65,NNW,338,0.9,1.8,39,0.00,,,0.00,WUHU216HW,2013-08-10 22:30:00,
2013-08-10 17:35:00,88.0,60.0,29.65,SSW,203,0.7,1.8,39,0.00,,,0.00,WUHU216HW,2013-08-10 22:35:00,
2013-08-10 17:40:00,87.8,59.9,29.65,NW,315,0.4,2.0,39,0.00,,,0.00,WUHU216HW,2013-08-10 22:40:00,
2013-08-10 17:45:00,86.8,58.1,29.65,NNW,338,1.6,2.0,38,0.00,,,0.00,WUHU216HW,2013-08-10 22:45:00,
2013-08-10 17:50:00,85.3,58.4,29.65,NW,315,2.9,2.9,40,0.00,,,0.00,WUHU216HW,2013-08-10 22:50:00,
2013-08-10 17:55:00,85.7,58.0,29.65,NW,315,1.8,2.9,39,0.00,,,0.00,WUHU216HW,2013-08-10 22:55:00,
2013-08-10 18:00:00,86.0,58.2,29.65,NNW,338,1.1,2.5,39,0.00,,,0.00,WUHU216HW,2013-08-10 23:00:00,
2013-08-10 18:04:00,86.0,57.4,29.65,NNW,338,1.1,1.1,38,0.00,,,0.00,WUHU216HW,2013-08-10 23:04:00,
2013-08-10 18:05:00,86.0,57.4,29.65,NNW,338,1.1,3.8,38,0.00,,,0.00,WUHU216HW,2013-08-10 23:05:00,
2013-08-10 18:10:00,86.0,57.4,29.65,NNW,338,1.1,3.8,38,0.00,,,0.00,WUHU216HW,2013-08-10 23:10:00,
2013-08-10 18:34:00,82.4,55.8,29.65,North,0,0.9,0.9,40,0.00,,,0.00,WUHU216HW,2013-08-10 23:34:00,
2013-08-10 18:39:00,82.1,56.1,29.65,NNW,338,0.9,3.4,41,0.00,,,0.00,WUHU216HW,2013-08-10 23:39:00,
2013-08-10 18:44:00,83.0,56.3,29.65,NW,315,0.4,3.4,40,0.00,,,0.00,WUHU216HW,2013-08-10 23:44:00,
2013-08-10 18:49:00,83.0,56.3,29.65,NW,315,2.0,2.2,40,0.00,,,0.00,WUHU216HW,2013-08-10 23:49:00,
2013-08-10 18:54:00,81.5,55.6,29.65,NW,315,1.1,2.2,41,0.00,,,0.00,WUHU216HW,2013-08-10 23:54:00,
2013-08-10 18:59:00,81.5,56.3,29.65,NW,315,2.7,2.7,42,0.00,,,0.00,WUHU216HW,2013-08-10 23:59:00,
2013-08-10 19:04:00,82.8,56.2,29.65,NW,315,0.2,2.7,40,0.00,,,0.00,WUHU216HW,2013-08-11 00:04:00,
2013-08-10 19:09:00,82.8,56.7,29.65,North,0,0.2,1.6,41,0.00,,,0.00,WUHU216HW,2013-08-11 00:09:00,
2013-08-10 19:14:00,81.9,55.9,29.65,North,0,1.1,1.6,41,0.00,,,0.00,WUHU216HW,2013-08-11 00:14:00,
2013-08-10 19:19:00,81.0,55.7,29.65,North,0,0.7,1.6,42,0.00,,,0.00,WUHU216HW,2013-08-11 00:19:00,
2013-08-10 19:24:00,81.2,55.9,29.65,NNW,338,0.9,1.6,42,0.00,,,0.00,WUHU216HW,2013-08-11 00:24:00,
2013-08-10 19:29:00,81.7,56.3,29.65,NW,315,1.8,1.8,42,0.00,,,0.00,WUHU216HW,2013-08-11 00:29:00,
2013-08-10 19:34:00,81.2,55.9,29.65,North,0,0.0,1.8,42,0.00,,,0.00,WUHU216HW,2013-08-11 00:34:00,
2013-08-10 19:39:00,80.6,56.6,29.65,NNE,23,0.2,1.1,44,0.00,,,0.00,WUHU216HW,2013-08-11 00:39:00,
2013-08-10 19:44:00,81.2,56.5,29.65,NW,315,1.1,1.1,43,0.00,,,0.00,WUHU216HW,2013-08-11 00:44:00,
2013-08-10 19:49:00,81.2,56.5,29.65,NNW,338,0.7,1.1,43,0.00,,,0.00,WUHU216HW,2013-08-11 00:49:00,
2013-08-10 19:54:00,80.3,55.7,29.65,NNW,338,0.4,1.6,43,0.00,,,0.00,WUHU216HW,2013-08-11 00:54:00,
2013-08-10 19:59:00,79.2,56.5,29.65,NNW,338,0.9,1.6,46,0.00,,,0.00,WUHU216HW,2013-08-11 00:59:00,
2013-08-10 20:04:00,79.7,56.4,29.66,North,0,0.4,0.9,45,0.00,,,0.00,WUHU216HW,2013-08-11 01:04:00,
2013-08-10 20:09:00,79.9,56.6,29.66,NNW,338,0.4,0.9,45,0.00,,,0.00,WUHU216HW,2013-08-11 01:09:00,
2013-08-10 20:14:00,79.6,56.3,29.66,North,0,0.0,0.9,45,0.00,,,0.00,WUHU216HW,2013-08-11 01:14:00,
2013-08-10 20:19:00,78.8,55.6,29.66,North,0,0.0,0.7,45,0.00,,,0.00,WUHU216HW,2013-08-11 01:19:00,
2013-08-10 20:24:00,78.1,55.6,29.66,North,0,0.0,0.2,46,0.00,,,0.00,WUHU216HW,2013-08-11 01:24:00,
2013-08-10 20:29:00,77.9,56.1,29.66,North,0,0.0,0.0,47,0.00,,,0.00,WUHU216HW,2013-08-11 01:29:00,
2013-08-10 20:34:00,78.3,56.3,29.66,North,0,0.0,0.0,47,0.00,,,0.00,WUHU216HW,2013-08-11 01:34:00,
2013-08-10 20:39:00,77.9,56.1,29.66,North,0,0.0,0.0,47,0.00,,,0.00,WUHU216HW,2013-08-11 01:39:00,
2013-08-10 20:44:00,77.2,55.4,29.66,North,0,0.0,0.0,47,0.00,,,0.00,WUHU216HW,2013-08-11 01:44:00,
2013-08-10 20:49:00,76.5,55.4,29.67,North,0,0.0,0.0,48,0.00,,,0.00,WUHU216HW,2013-08-11 01:49:00,
2013-08-10 20:54:00,76.0,55.4,29.67,North,0,0.0,0.0,49,0.00,,,0.00,WUHU216HW,2013-08-11 01:54:00,
2013-08-10 20:59:00,75.4,55.0,29.67,North,0,0.0,0.0,49,0.00,,,0.00,WUHU216HW,2013-08-11 01:59:00,
2013-08-10 21:04:00,75.6,56.8,29.67,North,0,0.0,0.0,52,0.00,,,0.00,WUHU216HW,2013-08-11 02:04:00,
2013-08-10 21:09:00,76.7,56.7,29.67,North,0,0.0,0.0,50,0.00,,,0.00,WUHU216HW,2013-08-11 02:09:00,
2013-08-10 21:14:00,76.7,56.2,29.68,North,0,0.0,0.0,49,0.00,,,0.00,WUHU216HW,2013-08-11 02:14:00,
2013-08-10 21:19:00,76.0,55.4,29.67,North,0,0.0,0.0,49,0.00,,,0.00,WUHU216HW,2013-08-11 02:19:00,
2013-08-10 21:24:00,75.4,55.6,29.68,North,0,0.0,0.0,50,0.00,,,0.00,WUHU216HW,2013-08-11 02:24:00,
2013-08-10 21:29:00,74.9,55.1,29.68,North,0,0.0,0.0,50,0.00,,,0.00,WUHU216HW,2013-08-11 02:29:00,
2013-08-10 21:34:00,74.3,55.1,29.68,NNW,338,0.0,0.0,51,0.00,,,0.00,WUHU216HW,2013-08-11 02:34:00,
2013-08-10 21:39:00,73.8,55.0,29.68,NNW,338,0.0,0.0,52,0.00,,,0.00,WUHU216HW,2013-08-11 02:39:00,
2013-08-10 21:44:00,73.6,54.8,29.69,North,0,0.0,0.0,52,0.00,,,0.00,WUHU216HW,2013-08-11 02:44:00,
2013-08-10 21:49:00,73.4,55.2,29.69,North,0,0.0,0.0,53,0.00,,,0.00,WUHU216HW,2013-08-11 02:49:00,
2013-08-10 21:54:00,73.4,56.7,29.69,North,0,0.0,0.0,56,0.00,,,0.00,WUHU216HW,2013-08-11 02:54:00,
2013-08-10 22:00:00,75.1,57.2,29.69,North,0,0.0,0.0,54,0.00,,,0.00,WUHU216HW,2013-08-11 03:00:00,
2013-08-10 22:05:00,75.1,56.8,29.69,North,0,0.0,0.0,53,0.00,,,0.00,WUHU216HW,2013-08-11 03:05:00,
2013-08-10 22:10:00,74.5,56.3,29.68,North,0,0.0,0.0,53,0.00,,,0.00,WUHU216HW,2013-08-11 03:10:00,
2013-08-10 22:15:00,73.8,55.5,29.69,North,0,0.0,0.0,53,0.00,,,0.00,WUHU216HW,2013-08-11 03:15:00,
2013-08-10 22:20:00,73.3,55.5,29.69,North,0,0.0,0.0,54,0.00,,,0.00,WUHU216HW,2013-08-11 03:20:00,
2013-08-10 22:25:00,72.7,55.0,29.69,North,0,0.0,0.0,54,0.00,,,0.00,WUHU216HW,2013-08-11 03:25:00,
2013-08-10 22:30:00,72.4,55.2,29.69,North,0,0.0,0.0,55,0.00,,,0.00,WUHU216HW,2013-08-11 03:30:00,
2013-08-10 22:35:00,72.2,55.5,29.69,North,0,0.0,0.0,56,0.00,,,0.00,WUHU216HW,2013-08-11 03:35:00,
2013-08-10 22:40:00,71.8,55.2,29.69,North,0,0.0,0.0,56,0.00,,,0.00,WUHU216HW,2013-08-11 03:40:00,
2013-08-10 22:45:00,71.5,55.4,29.69,North,0,0.0,0.0,57,0.00,,,0.00,WUHU216HW,2013-08-11 03:45:00,
2013-08-10 22:50:00,71.3,55.3,29.69,North,0,0.0,0.0,57,0.00,,,0.00,WUHU216HW,2013-08-11 03:50:00,
2013-08-10 22:56:00,70.9,55.5,29.69,North,0,0.0,0.0,58,0.00,,,0.00,WUHU216HW,2013-08-11 03:56:00,
2013-08-10 23:01:00,70.7,55.3,29.69,North,0,0.0,0.0,58,0.00,,,0.00,WUHU216HW,2013-08-11 04:01:00,
2013-08-10 23:06:00,70.4,54.9,29.69,North,0,0.0,0.0,58,0.00,,,0.00,WUHU216HW,2013-08-11 04:06:00,
2013-08-10 23:11:00,70.2,54.7,29.69,North,0,0.0,0.0,58,0.00,,,0.00,WUHU216HW,2013-08-11 04:11:00,
2013-08-10 23:16:00,70.0,55.1,29.69,North,0,0.0,0.0,59,0.00,,,0.00,WUHU216HW,2013-08-11 04:16:00,
2013-08-10 23:21:00,69.7,54.7,29.68,North,0,0.0,0.0,59,0.00,,,0.00,WUHU216HW,2013-08-11 04:21:00,
2013-08-10 23:26:00,69.5,55.1,29.69,North,0,0.0,0.0,60,0.00,,,0.00,WUHU216HW,2013-08-11 04:26:00,
2013-08-10 23:31:00,69.3,54.9,29.68,North,0,0.0,0.0,60,0.00,,,0.00,WUHU216HW,2013-08-11 04:31:00,
2013-08-10 23:36:00,69.3,55.4,29.68,North,0,0.0,0.0,61,0.00,,,0.00,WUHU216HW,2013-08-11 04:36:00,
2013-08-10 23:41:00,69.1,55.2,29.68,North,0,0.0,0.0,61,0.00,,,0.00,WUHU216HW,2013-08-11 04:41:00,
2013-08-10 23:46:00,68.9,55.0,29.68,North,0,0.0,0.0,61,0.00,,,0.00,WUHU216HW,2013-08-11 04:46:00,
2013-08-10 23:51:00,68.8,55.2,29.69,North,0,0.0,0.0,62,0.00,,,0.00,WUHU216HW,2013-08-11 04:51:00,
2013-08-10 23:56:00,68.8,55.2,29.69,North,0,0.0,0.0,62,0.00,,,0.00,WUHU216HW,2013-08-11 04:56:00,